Location: Hradec Kralove
(50.2170°N, 15.8330°E)
Time: 11:20:51
(UTC+01:00)

Explorer 7 - Visible Passes

Search period start: 31 January 2023 00:00
Search period end: 10 February 2023 00:00
Orbit: 480 x 660 km, 50.3° (Epoch: 30 January)

Date Brightness Start Highest point End Pass type
(mag) Time Alt. Az. Time Alt. Az. Time Alt. Az.
31 Jan 7.5 17:18:45 10° W 17:23:18 68° SSW 17:28:02 10° ESE visible
31 Jan 9.0 18:59:20 10° W 19:03:12 26° SW 19:06:36 12° SSE visible
01 Feb 7.8 17:19:45 10° W 17:24:14 56° SSW 17:28:54 10° SE visible
01 Feb 9.5 19:00:40 10° W 19:03:58 19° SW 19:07:21 10° S visible
02 Feb 8.3 17:20:46 10° W 17:25:08 45° SSW 17:29:40 10° SE visible
02 Feb 9.9 19:02:18 10° WSW 19:04:42 14° SW 19:07:08 10° SSW visible
03 Feb 8.8 17:21:49 10° W 17:25:59 35° SSW 17:30:18 10° SSE visible
04 Feb 9.3 17:22:57 10° W 17:26:48 27° SW 17:30:47 10° SSE visible
